Private Wetterstation Wechselburg
Wetterdaten: Sonntag, 21.03.2021
Datum Zeit Temp. +2m Bodentemp. Temp.+5cm Temp. Wind Windchill X Diff Temp. Feuchte +2m Feuchte +5cm Luftdruck Regen Wind Richtung Richtung Sonnenschein Taupunkt Windchill Windben
21.03.2021 00:00 0,3 C 3,3 C -0,1 C 0,2 C 0,0 C 0,0 C 70 % 73 % 1024,3 hPa 0,0 l/m 0,6 km/h (0 Bft) SW 225 0 min -4,5 C 0,0 C 0,0 km/h (0 Bft)
21.03.2021 00:05 0,2 C 3,3 C 0,0 C 0,2 C 0,1 C 0,0 C 70 % 73 % 1024,3 hPa 0,0 l/m 0,8 km/h (0 Bft) S 180 0 min -4,6 C 0,1 C 0,0 km/h (0 Bft)
21.03.2021 00:11 0,2 C 3,3 C 0,0 C 0,2 C 0,1 C 0,0 C 70 % 73 % 1024,0 hPa 0,0 l/m 0,8 km/h (0 Bft) N 0 0 min -4,6 C 0,1 C 0,0 km/h (0 Bft)
21.03.2021 00:26 0,4 C 3,3 C 0,2 C 0,4 C 0,3 C 0,0 C 69 % 72 % 1024,0 hPa 0,0 l/m 1,6 km/h (1 Bft) N 360 0 min -4,6 C 0,3 C 0,0 km/h (0 Bft)
21.03.2021 00:27 0,5 C 3,3 C 0,3 C 0,5 C 0,4 C 0,0 C 69 % 72 % 1023,7 hPa 0,0 l/m 1,1 km/h (1 Bft) W-SW 247 0 min -4,5 C 0,4 C 1,9 km/h (1 Bft)
21.03.2021 00:30 0,5 C 3,3 C 0,3 C 0,5 C 0,4 C 0,0 C 69 % 72 % 1023,7 hPa 0,0 l/m 1,1 km/h (1 Bft) W-SW 247 0 min -4,5 C 0,4 C 1,9 km/h (1 Bft)
21.03.2021 00:35 0,6 C 3,3 C 0,3 C 0,5 C 0,4 C 0,0 C 69 % 72 % 1023,7 hPa 0,0 l/m 1,8 km/h (1 Bft) O-NO 67 0 min -4,4 C 0,4 C 5,1 km/h (1 Bft)
21.03.2021 00:40 0,7 C 3,3 C 0,3 C 0,6 C 0,5 C 0,0 C 69 % 72 % 1023,7 hPa 0,0 l/m 1,8 km/h (1 Bft) W-SW 247 0 min -4,3 C 0,5 C 0,0 km/h (0 Bft)
21.03.2021 00:45 0,6 C 3,3 C 0,3 C 0,6 C 0,5 C 0,0 C 69 % 72 % 1023,7 hPa 0,0 l/m 1,1 km/h (1 Bft) S 180 0 min -4,4 C 0,5 C 0,0 km/h (0 Bft)
21.03.2021 00:50 0,7 C 3,3 C 0,3 C 0,6 C 0,5 C 0,0 C 69 % 72 % 1023,7 hPa 0,0 l/m 1,0 km/h (0 Bft) SO 135 0 min -4,3 C 0,5 C 5,0 km/h (1 Bft)
21.03.2021 00:55 0,8 C 3,3 C 0,4 C 0,7 C 0,6 C 0,0 C 69 % 73 % 1023,7 hPa 0,0 l/m 0,8 km/h (0 Bft) S-SW 202 0 min -4,2 C 0,6 C 0,0 km/h (0 Bft)
21.03.2021 01:00 0,8 C 3,3 C 0,4 C 0,8 C 0,7 C 0,0 C 69 % 72 % 1023,7 hPa 0,0 l/m 2,3 km/h (1 Bft) S-SO 157 0 min -4,2 C 0,7 C 10,0 km/h (2 Bft)
21.03.2021 01:05 0,8 C 3,3 C 0,5 C 0,5 C 0,0 C 0,0 C 69 % 72 % 1023,7 hPa 0,0 l/m 3,5 km/h (1 Bft) S 180 0 min -4,2 C 0,0 C 22,4 km/h (4 Bft)
21.03.2021 01:10 0,8 C 3,3 C 0,5 C 0,5 C 0,0 C 0,0 C 69 % 72 % 1023,7 hPa 0,0 l/m 3,5 km/h (1 Bft) S-SO 157 0 min -4,2 C 0,0 C 2,1 km/h (1 Bft)
21.03.2021 01:15 0,8 C 3,3 C 0,5 C 0,5 C 0,0 C 0,0 C 69 % 71 % 1023,7 hPa 0,0 l/m 3,5 km/h (1 Bft) SO 135 0 min -4,2 C 0,0 C 9,7 km/h (2 Bft)
21.03.2021 01:20 0,9 C 3,3 C 0,5 C 0,6 C 0,0 C 0,0 C 68 % 71 % 1023,7 hPa 0,0 l/m 3,5 km/h (1 Bft) NO 45 0 min -4,3 C 0,0 C 10,8 km/h (2 Bft)
21.03.2021 01:25 0,9 C 3,3 C 0,5 C 0,6 C 0,1 C 0,0 C 68 % 72 % 1023,7 hPa 0,0 l/m 3,4 km/h (1 Bft) SW 225 0 min -4,3 C 0,1 C 2,1 km/h (1 Bft)
21.03.2021 01:30 0,9 C 3,3 C 0,6 C 0,7 C 0,2 C 0,0 C 68 % 71 % 1023,7 hPa 0,0 l/m 3,2 km/h (1 Bft) SW 225 0 min -4,3 C 0,2 C 2,3 km/h (1 Bft)
21.03.2021 01:35 0,9 C 3,3 C 0,5 C 0,6 C 0,0 C 0,0 C 68 % 71 % 1023,7 hPa 0,0 l/m 3,5 km/h (1 Bft) O-NO 67 0 min -4,3 C 0,0 C 6,3 km/h (2 Bft)
21.03.2021 01:40 0,9 C 3,3 C 0,5 C 0,6 C 0,0 C 0,0 C 68 % 71 % 1023,7 hPa 0,0 l/m 3,5 km/h (1 Bft) NO 45 0 min -4,3 C 0,0 C 7,7 km/h (2 Bft)
21.03.2021 01:45 0,9 C 3,3 C 0,5 C 0,5 C -0,4 C 0,0 C 68 % 72 % 1023,7 hPa 0,0 l/m 4,3 km/h (1 Bft) SW 225 0 min -4,3 C -0,4 C 9,5 km/h (2 Bft)
21.03.2021 01:50 1,1 C 3,3 C 0,5 C 0,2 C -1,7 C 0,0 C 68 % 72 % 1022,6 hPa 0,0 l/m 7,4 km/h (2 Bft) SW 225 0 min -4,1 C -4,5 C 10,1 km/h (2 Bft)
21.03.2021 01:55 1,1 C 3,3 C 0,6 C 0,4 C -2,0 C 0,0 C 68 % 72 % 1022,6 hPa 0,0 l/m 8,5 km/h (2 Bft) SW 225 0 min -4,1 C -5,3 C 6,8 km/h (2 Bft)
21.03.2021 02:00 1,1 C 3,3 C 0,6 C 0,4 C -1,8 C 0,0 C 69 % 73 % 1022,6 hPa 0,0 l/m 7,9 km/h (2 Bft) SW 225 0 min -3,9 C -4,8 C 12,2 km/h (2 Bft)
21.03.2021 02:05 1,0 C 3,3 C 0,5 C 0,1 C -1,7 C 0,0 C 69 % 73 % 1022,6 hPa 0,0 l/m 7,6 km/h (2 Bft) S 180 0 min -4,0 C -4,6 C 7,4 km/h (2 Bft)
21.03.2021 02:10 0,9 C 3,3 C 0,5 C 0,0 C -1,8 C 0,0 C 70 % 75 % 1022,7 hPa 0,0 l/m 7,6 km/h (2 Bft) SW 225 0 min -3,9 C -4,7 C 11,3 km/h (2 Bft)
21.03.2021 02:15 0,8 C 3,5 C 0,4 C 0,0 C -1,6 C 0,0 C 71 % 76 % 1022,7 hPa 0,0 l/m 7,1 km/h (2 Bft) S 180 0 min -3,8 C -4,3 C 8,7 km/h (2 Bft)
21.03.2021 02:20 0,7 C 3,3 C 0,3 C 0,1 C -1,2 C 0,0 C 73 % 77 % 1022,7 hPa 0,0 l/m 5,5 km/h (1 Bft) SW 225 0 min -3,6 C -3,2 C 6,8 km/h (2 Bft)
21.03.2021 02:25 0,7 C 3,3 C 0,3 C 0,4 C -0,2 C 0,0 C 73 % 77 % 1022,7 hPa 0,0 l/m 3,2 km/h (1 Bft) W 270 0 min -3,6 C -0,2 C 2,6 km/h (1 Bft)
21.03.2021 02:30 0,7 C 3,3 C 0,3 C 0,6 C 0,4 C 0,0 C 74 % 78 % 1021,9 hPa 0,0 l/m 1,8 km/h (1 Bft) O-SO 112 0 min -3,4 C 0,4 C 5,8 km/h (2 Bft)
21.03.2021 02:35 0,6 C 3,3 C 0,3 C 0,5 C 0,4 C 0,0 C 74 % 78 % 1021,9 hPa 0,0 l/m 1,8 km/h (1 Bft) NW 315 0 min -3,5 C 0,4 C 1,9 km/h (1 Bft)
21.03.2021 02:40 0,7 C 3,5 C 0,3 C 0,6 C 0,4 C 0,0 C 74 % 78 % 1021,9 hPa 0,0 l/m 1,3 km/h (1 Bft) O-NO 67 0 min -3,4 C 0,4 C 0,0 km/h (0 Bft)
21.03.2021 02:45 0,7 C 3,5 C 0,3 C 0,6 C 0,4 C 0,0 C 75 % 78 % 1021,9 hPa 0,0 l/m 0,6 km/h (0 Bft) W-NW 292 0 min -3,2 C 0,4 C 0,0 km/h (0 Bft)
21.03.2021 02:50 0,7 C 3,5 C 0,3 C 0,6 C 0,4 C 0,0 C 75 % 78 % 1021,7 hPa 0,0 l/m 0,5 km/h (0 Bft) W 270 0 min -3,2 C 0,4 C 0,0 km/h (0 Bft)
21.03.2021 02:55 0,7 C 3,5 C 0,3 C 0,6 C 0,4 C 0,0 C 75 % 79 % 1021,7 hPa 0,0 l/m 0,8 km/h (0 Bft) S-SO 157 0 min -3,2 C 0,4 C 3,1 km/h (1 Bft)
21.03.2021 03:00 0,6 C 3,5 C 0,3 C 0,5 C 0,4 C 0,0 C 75 % 78 % 1021,7 hPa 0,0 l/m 1,9 km/h (1 Bft) S-SO 157 0 min -3,3 C 0,4 C 3,5 km/h (1 Bft)
21.03.2021 03:05 0,6 C 3,3 C 0,3 C 0,6 C 0,5 C 0,0 C 75 % 78 % 1021,7 hPa 0,0 l/m 1,9 km/h (1 Bft) S 180 0 min -3,3 C 0,5 C 4,2 km/h (1 Bft)
21.03.2021 03:10 0,7 C 3,3 C 0,4 C 0,6 C 0,5 C 0,0 C 75 % 78 % 1021,4 hPa 0,0 l/m 1,8 km/h (1 Bft) SO 135 0 min -3,2 C 0,5 C 8,4 km/h (2 Bft)
21.03.2021 03:15 0,7 C 3,3 C 0,4 C 0,7 C 0,6 C 0,0 C 75 % 78 % 1021,4 hPa 0,0 l/m 1,6 km/h (1 Bft) O-SO 112 0 min -3,2 C 0,6 C 0,0 km/h (0 Bft)
21.03.2021 03:20 0,8 C 3,3 C 0,5 C 0,8 C 0,7 C 0,0 C 74 % 77 % 1021,4 hPa 0,0 l/m 1,0 km/h (0 Bft) O 90 0 min -3,3 C 0,7 C 3,5 km/h (1 Bft)
21.03.2021 03:25 0,8 C 3,3 C 0,5 C 0,8 C 0,7 C 0,0 C 74 % 77 % 1021,4 hPa 0,0 l/m 0,8 km/h (0 Bft) SW 225 0 min -3,3 C 0,7 C 4,2 km/h (1 Bft)
21.03.2021 03:30 0,9 C 3,3 C 0,6 C 0,9 C 0,8 C 0,0 C 73 % 76 % 1021,4 hPa 0,0 l/m 1,3 km/h (1 Bft) S 180 0 min -3,4 C 0,8 C 0,0 km/h (0 Bft)
21.03.2021 03:35 1,1 C 3,3 C 0,7 C 1,0 C 0,9 C 0,0 C 73 % 76 % 1021,4 hPa 0,0 l/m 1,4 km/h (1 Bft) S 180 0 min -3,2 C 0,9 C 7,6 km/h (2 Bft)
21.03.2021 03:40 1,2 C 3,3 C 0,8 C 1,2 C 1,1 C 0,0 C 73 % 75 % 1021,4 hPa 0,0 l/m 1,9 km/h (1 Bft) SW 225 0 min -3,1 C 1,1 C 3,9 km/h (1 Bft)
21.03.2021 03:45 1,2 C 3,3 C 0,8 C 1,2 C 1,1 C 0,0 C 72 % 75 % 1021,4 hPa 0,0 l/m 2,4 km/h (1 Bft) S 180 0 min -3,3 C 1,1 C 1,6 km/h (1 Bft)
21.03.2021 03:50 1,2 C 3,3 C 0,8 C 1,2 C 1,2 C 0,0 C 72 % 75 % 1020,5 hPa 0,0 l/m 2,4 km/h (1 Bft) O-SO 112 0 min -3,3 C 1,2 C 2,6 km/h (1 Bft)
21.03.2021 03:55 1,2 C 3,3 C 0,9 C 1,2 C 1,1 C 0,0 C 72 % 75 % 1020,5 hPa 0,0 l/m 2,7 km/h (1 Bft) O 90 0 min -3,3 C 1,1 C 9,5 km/h (2 Bft)
21.03.2021 04:00 1,3 C 3,5 C 0,9 C 1,3 C 1,2 C 0,0 C 71 % 75 % 1020,5 hPa 0,0 l/m 1,8 km/h (1 Bft) SW 225 0 min -3,4 C 1,2 C 6,8 km/h (2 Bft)
21.03.2021 04:05 1,3 C 3,5 C 0,9 C 1,2 C 1,1 C 0,0 C 71 % 75 % 1020,5 hPa 0,0 l/m 2,7 km/h (1 Bft) SO 135 0 min -3,4 C 1,1 C 5,1 km/h (1 Bft)
21.03.2021 04:10 1,3 C 3,5 C 0,9 C 0,9 C 0,2 C 0,0 C 71 % 75 % 1020,5 hPa 0,0 l/m 4,2 km/h (1 Bft) SW 225 0 min -3,4 C 0,2 C 4,5 km/h (1 Bft)
21.03.2021 04:15 1,3 C 3,5 C 0,9 C 0,8 C -0,2 C 0,0 C 71 % 75 % 1020,5 hPa 0,0 l/m 5,0 km/h (1 Bft) S 180 0 min -3,4 C -1,8 C 10,8 km/h (2 Bft)
21.03.2021 04:20 1,3 C 3,5 C 0,9 C 0,9 C 0,0 C 0,0 C 71 % 75 % 1020,5 hPa 0,0 l/m 4,5 km/h (1 Bft) SW 225 0 min -3,4 C 0,0 C 7,1 km/h (2 Bft)
21.03.2021 04:25 1,3 C 3,5 C 0,9 C 0,8 C -0,1 C 0,0 C 72 % 75 % 1020,5 hPa 0,0 l/m 4,7 km/h (1 Bft) SW 225 0 min -3,2 C -1,6 C 12,7 km/h (3 Bft)
21.03.2021 04:30 1,4 C 3,5 C 0,9 C 0,8 C -0,3 C 0,0 C 72 % 75 % 1020,1 hPa 0,0 l/m 5,3 km/h (1 Bft) W-SW 247 0 min -3,1 C -2,1 C 12,2 km/h (2 Bft)
21.03.2021 04:35 1,5 C 3,5 C 1,0 C 0,9 C -0,3 C 0,0 C 72 % 75 % 1020,1 hPa 0,0 l/m 5,3 km/h (1 Bft) S 180 0 min -3,0 C -2,1 C 0,0 km/h (0 Bft)
21.03.2021 04:40 1,4 C 3,4 C 1,0 C 1,1 C 0,4 C 0,0 C 72 % 76 % 1020,1 hPa 0,0 l/m 3,7 km/h (1 Bft) S-SW 202 0 min -3,1 C 0,4 C 5,3 km/h (1 Bft)
21.03.2021 04:45 1,5 C 3,5 C 1,0 C 1,1 C 0,4 C 0,0 C 72 % 76 % 1020,1 hPa 0,0 l/m 3,9 km/h (1 Bft) S-SO 157 0 min -3,0 C 0,4 C 10,1 km/h (2 Bft)
21.03.2021 04:50 1,5 C 3,5 C 1,0 C 1,0 C -0,1 C 0,0 C 72 % 76 % 1019,6 hPa 0,0 l/m 4,8 km/h (1 Bft) SW 225 0 min -3,0 C -1,6 C 10,6 km/h (2 Bft)
21.03.2021 04:55 1,5 C 3,5 C 1,0 C 1,1 C 0,3 C 0,0 C 72 % 76 % 1019,6 hPa 0,0 l/m 4,0 km/h (1 Bft) SW 225 0 min -3,0 C 0,3 C 1,6 km/h (1 Bft)
21.03.2021 05:00 1,5 C 3,4 C 1,0 C 1,3 C 0,9 C 0,0 C 73 % 77 % 1019,6 hPa 0,0 l/m 3,1 km/h (1 Bft) W-SW 247 0 min -2,8 C 0,9 C 4,2 km/h (1 Bft)
21.03.2021 05:05 1,4 C 3,5 C 1,0 C 1,3 C 1,2 C 0,0 C 73 % 77 % 1019,6 hPa 0,0 l/m 2,6 km/h (1 Bft) S-SO 157 0 min -2,9 C 1,2 C 3,9 km/h (1 Bft)
21.03.2021 05:10 1,5 C 3,4 C 1,1 C 1,3 C 0,8 C 0,0 C 73 % 77 % 1019,6 hPa 0,0 l/m 3,2 km/h (1 Bft) SW 225 0 min -2,8 C 0,8 C 6,8 km/h (2 Bft)
21.03.2021 05:15 1,5 C 3,4 C 1,1 C 1,0 C 0,0 C 0,0 C 73 % 77 % 1019,6 hPa 0,0 l/m 5,0 km/h (1 Bft) S-SW 202 0 min -2,8 C -1,6 C 8,9 km/h (2 Bft)
21.03.2021 05:20 1,6 C 3,4 C 1,1 C 1,1 C 0,1 C 0,0 C 73 % 77 % 1019,6 hPa 0,0 l/m 5,1 km/h (1 Bft) S-SO 157 0 min -2,7 C -1,5 C 4,2 km/h (1 Bft)
21.03.2021 05:25 1,6 C 3,4 C 1,1 C 1,2 C 0,5 C 0,0 C 74 % 77 % 1019,6 hPa 0,0 l/m 4,2 km/h (1 Bft) W-SW 247 0 min -2,5 C 0,5 C 5,8 km/h (2 Bft)
21.03.2021 05:30 1,6 C 3,4 C 1,1 C 1,2 C 0,3 C 0,0 C 74 % 77 % 1019,4 hPa 0,0 l/m 4,7 km/h (1 Bft) S-SO 157 0 min -2,5 C -1,1 C 10,0 km/h (2 Bft)
21.03.2021 05:35 1,6 C 3,4 C 1,1 C 1,1 C 0,2 C 0,0 C 74 % 77 % 1019,4 hPa 0,0 l/m 4,8 km/h (1 Bft) SW 225 0 min -2,5 C -1,3 C 6,6 km/h (2 Bft)
21.03.2021 05:40 1,7 C 3,4 C 1,1 C 1,2 C 0,2 C 0,0 C 74 % 77 % 1019,4 hPa 0,0 l/m 4,8 km/h (1 Bft) SW 225 0 min -2,4 C -1,3 C 8,5 km/h (2 Bft)
21.03.2021 05:45 1,6 C 3,4 C 1,1 C 1,1 C 0,1 C 0,0 C 74 % 77 % 1019,4 hPa 0,0 l/m 5,1 km/h (1 Bft) S-SW 202 0 min -2,5 C -1,5 C 4,5 km/h (1 Bft)
21.03.2021 05:50 1,6 C 3,4 C 1,2 C 1,0 C -0,2 C 0,0 C 74 % 78 % 1019,4 hPa 0,0 l/m 5,8 km/h (2 Bft) SW 225 0 min -2,5 C -2,2 C 5,6 km/h (1 Bft)
21.03.2021 05:55 1,6 C 3,4 C 1,1 C 1,0 C -0,1 C 0,0 C 74 % 78 % 1019,4 hPa 0,0 l/m 5,8 km/h (2 Bft) SW 225 0 min -2,5 C -2,1 C 5,5 km/h (1 Bft)
21.03.2021 06:00 1,6 C 3,4 C 1,2 C 1,1 C 0,1 C 0,0 C 74 % 78 % 1019,4 hPa 0,0 l/m 5,5 km/h (1 Bft) S-SW 202 0 min -2,5 C -1,7 C 9,8 km/h (2 Bft)
21.03.2021 06:05 1,7 C 3,4 C 1,3 C 1,2 C 0,3 C 0,0 C 75 % 78 % 1019,4 hPa 0,0 l/m 4,8 km/h (1 Bft) SW 225 0 min -2,2 C -1,2 C 5,6 km/h (1 Bft)
21.03.2021 06:10 1,7 C 3,4 C 1,3 C 1,2 C 0,1 C 0,0 C 75 % 78 % 1019,1 hPa 0,0 l/m 5,6 km/h (1 Bft) S-SW 202 0 min -2,2 C -1,7 C 6,4 km/h (2 Bft)
21.03.2021 06:15 1,8 C 3,4 C 1,3 C 1,2 C -0,1 C 0,0 C 75 % 79 % 1019,1 hPa 0,0 l/m 6,1 km/h (2 Bft) S 180 0 min -2,1 C -2,2 C 7,4 km/h (2 Bft)
21.03.2021 06:20 1,9 C 3,4 C 1,4 C 1,1 C -0,5 C 0,0 C 75 % 79 % 1019,1 hPa 0,0 l/m 7,4 km/h (2 Bft) S 180 0 min -2,1 C -3,1 C 6,3 km/h (2 Bft)
21.03.2021 06:25 1,9 C 3,4 C 1,4 C 1,3 C -0,7 C 0,0 C 75 % 79 % 1019,1 hPa 0,0 l/m 7,9 km/h (2 Bft) SW 225 0 min -2,1 C -3,5 C 14,8 km/h (3 Bft)
21.03.2021 06:30 1,9 C 3,4 C 1,4 C 1,0 C -0,7 C 0,0 C 76 % 79 % 1019,1 hPa 0,0 l/m 7,7 km/h (2 Bft) W-NW 292 0 min -1,9 C -3,5 C 2,7 km/h (1 Bft)
21.03.2021 06:35 1,7 C 3,4 C 1,4 C 1,0 C -0,4 C 0,0 C 76 % 80 % 1019,1 hPa 0,0 l/m 6,9 km/h (2 Bft) SO 135 0 min -2,1 C -2,8 C 10,3 km/h (2 Bft)
21.03.2021 06:40 1,7 C 3,4 C 1,3 C 1,0 C -0,4 C 0,0 C 77 % 80 % 1019,1 hPa 0,0 l/m 6,6 km/h (2 Bft) N-NO 22 0 min -1,9 C -2,7 C 7,7 km/h (2 Bft)
21.03.2021 06:45 1,6 C 3,4 C 1,4 C 1,0 C -0,3 C 0,0 C 77 % 81 % 1019,1 hPa 0,0 l/m 6,0 km/h (2 Bft) S 180 0 min -2,0 C -2,4 C 11,6 km/h (2 Bft)
21.03.2021 06:50 1,7 C 3,5 C 1,3 C 1,1 C 0,0 C 0,0 C 77 % 81 % 1018,7 hPa 0,0 l/m 5,0 km/h (1 Bft) S-SW 202 0 min -1,9 C -1,6 C 11,6 km/h (2 Bft)
21.03.2021 06:55 1,6 C 3,5 C 1,3 C 0,9 C -0,5 C 0,0 C 78 % 82 % 1018,7 hPa 0,0 l/m 5,8 km/h (2 Bft) W 270 0 min -1,8 C -2,5 C 7,1 km/h (2 Bft)
21.03.2021 07:00 1,5 C 3,7 C 1,1 C 0,9 C -0,4 C 0,0 C 79 % 83 % 1018,7 hPa 0,0 l/m 5,5 km/h (1 Bft) O-SO 112 0 min -1,7 C -2,3 C 4,2 km/h (1 Bft)
21.03.2021 07:05 1,3 C 3,7 C 1,0 C 0,9 C 0,2 C 0,0 C 80 % 84 % 1018,7 hPa 0,0 l/m 3,9 km/h (1 Bft) W-SW 247 0 min -1,8 C 0,2 C 0,0 km/h (0 Bft)
21.03.2021 07:10 1,3 C 3,7 C 0,9 C 1,1 C 0,7 C 0,0 C 80 % 85 % 1018,2 hPa 0,0 l/m 2,7 km/h (1 Bft) O-NO 67 0 min -1,8 C 0,7 C 2,3 km/h (1 Bft)
21.03.2021 07:15 1,2 C 3,7 C 1,0 C 1,0 C 0,7 C 0,0 C 81 % 85 % 1018,2 hPa 0,0 l/m 2,6 km/h (1 Bft) SW 225 0 min -1,7 C 0,7 C 8,0 km/h (2 Bft)
21.03.2021 07:20 1,2 C 3,7 C 0,9 C 0,6 C -0,5 C 0,0 C 82 % 85 % 1018,2 hPa 0,0 l/m 4,5 km/h (1 Bft) S-SW 202 0 min -1,5 C -0,5 C 9,0 km/h (2 Bft)
21.03.2021 07:25 1,3 C 3,7 C 1,0 C 0,6 C -0,8 C 0,0 C 82 % 86 % 1018,2 hPa 0,0 l/m 5,3 km/h (1 Bft) S 180 0 min -1,4 C -2,6 C 6,8 km/h (2 Bft)
21.03.2021 07:30 1,2 C 3,8 C 0,9 C 0,6 C -0,6 C 0,0 C 83 % 86 % 1018,2 hPa 0,0 l/m 4,7 km/h (1 Bft) S-SO 157 0 min -1,4 C -2,1 C 8,2 km/h (2 Bft)
21.03.2021 07:35 1,2 C 3,8 C 0,8 C 0,6 C -0,6 C 0,0 C 83 % 87 % 1018,2 hPa 0,0 l/m 4,7 km/h (1 Bft) S-SW 202 0 min -1,4 C -2,1 C 11,4 km/h (2 Bft)
21.03.2021 07:40 1,1 C 3,9 C 0,9 C 0,4 C -1,1 C 0,0 C 84 % 87 % 1018,2 hPa 0,0 l/m 5,6 km/h (1 Bft) SW 225 0 min -1,3 C -3,1 C 8,0 km/h (2 Bft)
21.03.2021 07:45 1,1 C 3,9 C 0,8 C 0,3 C -1,2 C 0,0 C 84 % 87 % 1018,2 hPa 0,0 l/m 6,0 km/h (2 Bft) S 180 0 min -1,3 C -3,4 C 6,8 km/h (2 Bft)
21.03.2021 07:50 1,0 C 3,9 C 0,8 C 0,2 C -1,4 C 0,0 C 85 % 88 % 1018,4 hPa 0,0 l/m 6,4 km/h (2 Bft) W-SW 247 0 min -1,2 C -3,8 C 3,5 km/h (1 Bft)
21.03.2021 07:55 1,1 C 3,9 C 0,8 C 0,2 C -1,7 C 0,0 C 85 % 88 % 1018,4 hPa 0,0 l/m 6,9 km/h (2 Bft) SW 225 0 min -1,1 C -4,3 C 10,8 km/h (2 Bft)
21.03.2021 08:00 1,0 C 3,9 C 0,7 C 0,3 C -1,2 C 0,0 C 85 % 89 % 1018,4 hPa 0,0 l/m 5,6 km/h (1 Bft) S-SW 202 0 min -1,2 C -3,2 C 11,7 km/h (2 Bft)
21.03.2021 08:05 1,1 C 4,1 C 0,7 C 0,4 C -0,9 C 0,0 C 86 % 89 % 1018,4 hPa 0,0 l/m 5,1 km/h (1 Bft) S 180 0 min -1,0 C -2,7 C 5,1 km/h (1 Bft)
21.03.2021 08:10 1,0 C 4,1 C 0,8 C 0,4 C -0,8 C 0,0 C 86 % 89 % 1018,0 hPa 0,0 l/m 5,0 km/h (1 Bft) SO 135 0 min -1,1 C -2,5 C 2,9 km/h (1 Bft)
21.03.2021 08:15 1,0 C 4,1 C 0,9 C 0,4 C -0,8 C 0,0 C 86 % 90 % 1018,0 hPa 0,0 l/m 5,0 km/h (1 Bft) S-SW 202 0 min -1,1 C -2,5 C 7,7 km/h (2 Bft)
21.03.2021 08:20 1,1 C 4,1 C 0,9 C 0,4 C -1,0 C 0,0 C 87 % 90 % 1018,0 hPa 0,0 l/m 5,5 km/h (1 Bft) W-SW 247 0 min -0,8 C -3,0 C 4,5 km/h (1 Bft)
21.03.2021 08:25 1,1 C 4,1 C 0,9 C 0,5 C -0,8 C 0,0 C 87 % 91 % 1018,0 hPa 0,0 l/m 5,1 km/h (1 Bft) S 180 0 min -0,8 C -2,5 C 7,6 km/h (2 Bft)
21.03.2021 08:30 1,1 C 4,1 C 1,1 C 0,5 C -0,7 C 0,0 C 87 % 91 % 1017,9 hPa 0,0 l/m 5,1 km/h (1 Bft) W-SW 247 0 min -0,8 C -2,4 C 7,4 km/h (2 Bft)
21.03.2021 08:35 1,1 C 4,1 C 1,1 C 0,6 C -0,3 C 0,0 C 87 % 91 % 1017,9 hPa 0,0 l/m 4,5 km/h (1 Bft) SW 225 0 min -0,8 C -0,3 C 10,1 km/h (2 Bft)
21.03.2021 08:40 1,0 C 4,1 C 1,1 C 0,5 C -0,6 C 0,0 C 87 % 91 % 1017,9 hPa 0,7 l/m 5,5 km/h (1 Bft) S-SW 202 0 min -0,9 C -2,5 C 8,7 km/h (2 Bft)
21.03.2021 08:45 1,1 C 4,1 C 1,2 C 0,5 C -0,6 C 0,0 C 87 % 92 % 1017,9 hPa 0,0 l/m 5,8 km/h (2 Bft) S 180 0 min -0,8 C -2,6 C 5,3 km/h (1 Bft)
21.03.2021 08:50 1,1 C 4,1 C 1,2 C 0,8 C 0,3 C 0,0 C 88 % 92 % 1017,4 hPa 0,0 l/m 4,0 km/h (1 Bft) O-SO 112 0 min -0,7 C 0,3 C 4,7 km/h (1 Bft)
21.03.2021 08:55 1,2 C 4,1 C 1,3 C 1,0 C 0,6 C 0,0 C 88 % 92 % 1017,4 hPa 0,0 l/m 3,5 km/h (1 Bft) S-SO 157 0 min -0,6 C 0,6 C 4,3 km/h (1 Bft)
21.03.2021 09:00 1,2 C 4,1 C 1,4 C 0,8 C 0,0 C 0,0 C 88 % 92 % 1017,4 hPa 0,0 l/m 5,0 km/h (1 Bft) W-SW 247 0 min -0,6 C -1,6 C 7,4 km/h (2 Bft)
21.03.2021 09:05 1,2 C 4,1 C 1,4 C 0,6 C -0,6 C 0,0 C 88 % 92 % 1017,4 hPa 0,0 l/m 6,4 km/h (2 Bft) S 180 0 min -0,6 C -2,9 C 10,5 km/h (2 Bft)
21.03.2021 09:10 1,3 C 4,0 C 1,5 C 0,6 C -0,7 C 0,0 C 88 % 92 % 1017,8 hPa 0,0 l/m 7,4 km/h (2 Bft) SW 225 0 min -0,5 C -3,4 C 9,0 km/h (2 Bft)
21.03.2021 09:15 1,3 C 4,0 C 1,5 C 0,7 C -0,4 C 0,0 C 88 % 92 % 1017,8 hPa 0,0 l/m 6,6 km/h (2 Bft) S 180 0 min -0,5 C -2,7 C 10,8 km/h (2 Bft)
21.03.2021 09:20 1,2 C 4,0 C 1,6 C 0,9 C 0,3 C 0,0 C 88 % 92 % 1017,8 hPa 0,0 l/m 5,3 km/h (1 Bft) S 180 0 min -0,6 C -1,4 C 6,4 km/h (2 Bft)
21.03.2021 09:25 1,3 C 4,0 C 1,6 C 1,0 C 0,3 C 0,0 C 88 % 92 % 1017,8 hPa 0,0 l/m 5,1 km/h (1 Bft) S-SW 202 0 min -0,5 C -1,3 C 7,4 km/h (2 Bft)
21.03.2021 09:30 1,3 C 4,2 C 1,7 C 1,0 C 0,3 C 0,0 C 88 % 92 % 1017,8 hPa 0,0 l/m 5,3 km/h (1 Bft) SW 225 0 min -0,5 C -1,4 C 6,1 km/h (2 Bft)
21.03.2021 09:35 1,3 C 4,2 C 1,8 C 1,1 C 0,6 C 0,0 C 88 % 92 % 1017,8 hPa 0,0 l/m 5,0 km/h (1 Bft) S-SW 202 0 min -0,5 C -0,9 C 8,5 km/h (2 Bft)
21.03.2021 09:40 1,4 C 4,2 C 1,9 C 1,4 C 1,3 C 0,0 C 88 % 92 % 1017,8 hPa 0,0 l/m 4,2 km/h (1 Bft) S 180 0 min -0,4 C 1,3 C 12,4 km/h (3 Bft)
21.03.2021 09:45 1,5 C 4,2 C 2,0 C 1,4 C 1,1 C 0,0 C 88 % 92 % 1017,8 hPa 0,0 l/m 4,7 km/h (1 Bft) S-SW 202 0 min -0,3 C -0,2 C 6,8 km/h (2 Bft)
21.03.2021 09:50 1,6 C 4,2 C 2,1 C 1,1 C 0,2 C 0,0 C 88 % 92 % 1017,2 hPa 0,0 l/m 7,1 km/h (2 Bft) N-NW 337 0 min -0,2 C -2,2 C 2,3 km/h (1 Bft)
21.03.2021 09:55 1,6 C 4,2 C 2,2 C 1,3 C -0,2 C 0,0 C 88 % 93 % 1017,2 hPa 0,0 l/m 8,5 km/h (2 Bft) S 180 0 min -0,2 C -3,1 C 11,6 km/h (2 Bft)
21.03.2021 10:00 1,8 C 4,2 C 2,3 C 1,5 C 0,2 C 0,0 C 88 % 93 % 1017,2 hPa 0,0 l/m 8,5 km/h (2 Bft) W-SW 247 0 min 0,0 C -2,7 C 6,6 km/h (2 Bft)
21.03.2021 10:05 1,9 C 4,2 C 2,5 C 1,6 C 0,4 C 0,0 C 88 % 92 % 1017,2 hPa 0,0 l/m 7,9 km/h (2 Bft) S 180 0 min 0,1 C -2,2 C 12,9 km/h (3 Bft)
21.03.2021 10:10 2,0 C 4,3 C 2,7 C 1,8 C 0,9 C 0,0 C 88 % 92 % 1016,9 hPa 0,0 l/m 7,7 km/h (2 Bft) S-SW 202 0 min 0,2 C -1,6 C 11,9 km/h (2 Bft)
21.03.2021 10:15 2,0 C 4,3 C 2,8 C 1,9 C 1,0 C 0,0 C 88 % 92 % 1016,9 hPa 0,0 l/m 8,4 km/h (2 Bft) SW 225 0 min 0,2 C -1,7 C 10,8 km/h (2 Bft)
21.03.2021 10:20 2,1 C 4,2 C 2,9 C 2,0 C 0,7 C 0,0 C 88 % 92 % 1016,9 hPa 0,0 l/m 9,5 km/h (2 Bft) S-SW 202 0 min 0,3 C -2,3 C 11,3 km/h (2 Bft)
21.03.2021 10:25 2,3 C 4,2 C 2,9 C 2,0 C 0,6 C 0,0 C 88 % 92 % 1016,9 hPa 0,0 l/m 10,1 km/h (2 Bft) S-SW 202 0 min 0,5 C -2,6 C 14,6 km/h (3 Bft)
21.03.2021 10:30 2,2 C 4,2 C 2,9 C 2,0 C 0,7 C 0,0 C 88 % 92 % 1016,8 hPa 0,0 l/m 10,1 km/h (2 Bft) S-SW 202 0 min 0,4 C -2,5 C 11,1 km/h (2 Bft)
21.03.2021 10:35 2,3 C 4,2 C 2,9 C 2,1 C 1,0 C 0,0 C 88 % 92 % 1016,8 hPa 0,0 l/m 8,4 km/h (2 Bft) O 90 0 min 0,5 C -1,7 C 11,3 km/h (2 Bft)
21.03.2021 10:40 2,3 C 4,2 C 3,0 C 2,1 C 1,6 C 0,0 C 88 % 92 % 1016,8 hPa 0,0 l/m 6,3 km/h (2 Bft) S 180 0 min 0,5 C -0,3 C 7,4 km/h (2 Bft)
21.03.2021 10:45 2,4 C 4,2 C 3,0 C 2,0 C 1,3 C 0,0 C 88 % 92 % 1016,8 hPa 0,0 l/m 7,1 km/h (2 Bft) SW 225 0 min 0,6 C -0,9 C 8,9 km/h (2 Bft)
21.03.2021 10:50 2,4 C 4,4 C 3,0 C 2,2 C 1,1 C 0,0 C 88 % 92 % 1017,0 hPa 0,0 l/m 8,2 km/h (2 Bft) S-SO 157 0 min 0,6 C -1,5 C 17,1 km/h (3 Bft)
21.03.2021 10:55 2,4 C 4,4 C 3,1 C 2,2 C 0,9 C 0,0 C 88 % 92 % 1017,0 hPa 0,0 l/m 8,7 km/h (2 Bft) SW 225 0 min 0,6 C -1,9 C 10,0 km/h (2 Bft)
21.03.2021 11:00 2,5 C 4,4 C 3,1 C 2,3 C 1,2 C 0,0 C 88 % 92 % 1017,0 hPa 0,0 l/m 8,0 km/h (2 Bft) S-SO 157 0 min 0,7 C -1,3 C 11,1 km/h (2 Bft)
21.03.2021 11:05 2,6 C 4,4 C 3,1 C 2,2 C 1,5 C 0,0 C 88 % 92 % 1017,0 hPa 0,0 l/m 7,1 km/h (2 Bft) W-SW 247 0 min 0,8 C -0,7 C 8,7 km/h (2 Bft)
21.03.2021 11:10 2,7 C 4,4 C 3,2 C 2,4 C 1,7 C 0,0 C 88 % 92 % 1016,6 hPa 0,0 l/m 6,9 km/h (2 Bft) SO 135 0 min 0,9 C -0,4 C 6,8 km/h (2 Bft)
21.03.2021 11:15 2,7 C 4,4 C 3,4 C 2,4 C 1,8 C 0,0 C 88 % 93 % 1016,6 hPa 0,0 l/m 7,2 km/h (2 Bft) SW 225 0 min 0,9 C -0,4 C 12,2 km/h (2 Bft)
21.03.2021 11:20 2,8 C 4,4 C 3,5 C 2,7 C 1,7 C 0,0 C 88 % 92 % 1016,6 hPa 0,0 l/m 7,9 km/h (2 Bft) S-SW 202 0 min 1,0 C -0,7 C 6,9 km/h (2 Bft)
21.03.2021 11:25 2,8 C 4,4 C 3,5 C 2,6 C 2,2 C 0,0 C 88 % 92 % 1016,6 hPa 0,0 l/m 6,6 km/h (2 Bft) SW 225 0 min 1,0 C 0,3 C 4,8 km/h (1 Bft)
21.03.2021 11:30 2,9 C 4,4 C 4,1 C 3,5 C 3,5 C 0,6 C 88 % 92 % 1016,6 hPa 0,0 l/m 5,0 km/h (1 Bft) S-SW 202 0 min 1,1 C 2,4 C 15,0 km/h (3 Bft)
21.03.2021 11:35 3,1 C 4,4 C 4,2 C 3,7 C 3,7 C 0,6 C 88 % 92 % 1016,6 hPa 0,0 l/m 5,6 km/h (1 Bft) SW 225 0 min 1,3 C 2,4 C 7,7 km/h (2 Bft)
21.03.2021 11:40 3,3 C 4,4 C 4,3 C 3,6 C 3,6 C 0,3 C 88 % 92 % 1016,6 hPa 0,0 l/m 6,3 km/h (2 Bft) W-SW 247 0 min 1,5 C 2,0 C 6,8 km/h (2 Bft)
21.03.2021 11:45 3,3 C 4,3 C 4,3 C 3,7 C 3,7 C 0,4 C 88 % 92 % 1016,6 hPa 0,0 l/m 6,0 km/h (2 Bft) SW 225 0 min 1,5 C 2,2 C 7,7 km/h (2 Bft)
21.03.2021 11:50 3,5 C 4,5 C 4,1 C 3,5 C 3,4 C 0,0 C 88 % 92 % 1016,8 hPa 0,0 l/m 6,0 km/h (2 Bft) S-SW 202 0 min 1,7 C 1,9 C 10,6 km/h (2 Bft)
21.03.2021 11:55 3,4 C 4,5 C 4,1 C 3,3 C 3,0 C 0,0 C 88 % 92 % 1016,8 hPa 0,0 l/m 6,4 km/h (2 Bft) W-SW 247 0 min 1,6 C 1,3 C 9,5 km/h (2 Bft)
21.03.2021 12:00 3,5 C 4,5 C 4,5 C 3,4 C 3,2 C 0,0 C 88 % 92 % 1016,8 hPa 0,0 l/m 6,6 km/h (2 Bft) S-SW 202 0 min 1,7 C 1,4 C 4,8 km/h (1 Bft)
21.03.2021 12:05 3,6 C 4,3 C 4,7 C 3,6 C 3,6 C 0,0 C 88 % 93 % 1016,8 hPa 0,0 l/m 7,1 km/h (2 Bft) S-SW 202 0 min 1,8 C 1,8 C 9,7 km/h (2 Bft)
21.03.2021 12:10 3,6 C 4,3 C 4,7 C 3,6 C 3,6 C 0,0 C 88 % 93 % 1017,0 hPa 0,0 l/m 7,1 km/h (2 Bft) S-SW 202 0 min 1,8 C 1,8 C 9,7 km/h (2 Bft)
21.03.2021 12:15 3,6 C 4,3 C 4,7 C 3,6 C 3,6 C 0,0 C 88 % 93 % 1017,0 hPa 0,0 l/m 7,1 km/h (2 Bft) S-SW 202 0 min 1,8 C 1,8 C 9,7 km/h (2 Bft)
21.03.2021 12:20 4,3 C 4,2 C 5,5 C 6,1 C 6,1 C 1,8 C 88 % 92 % 1017,0 hPa 0,0 l/m 4,5 km/h (1 Bft) S-SW 202 0 min 2,5 C 6,1 C 6,0 km/h (2 Bft)
21.03.2021 12:25 4,4 C 4,2 C 5,6 C 6,2 C 6,2 C 1,8 C 88 % 91 % 1017,0 hPa 0,0 l/m 5,3 km/h (1 Bft) SW 225 0 min 2,6 C 5,3 C 2,9 km/h (1 Bft)
21.03.2021 12:30 5,1 C 4,1 C 5,8 C 6,4 C 6,4 C 1,3 C 88 % 91 % 1017,0 hPa 0,0 l/m 6,4 km/h (2 Bft) S-SW 202 0 min 3,3 C 5,2 C 26,9 km/h (4 Bft)
21.03.2021 12:35 5,5 C 4,1 C 5,8 C 6,6 C 6,6 C 1,1 C 88 % 90 % 1017,0 hPa 0,0 l/m 6,0 km/h (2 Bft) S 180 0 min 3,7 C 5,6 C 11,7 km/h (2 Bft)
21.03.2021 12:40 5,6 C 4,1 C 5,9 C 7,1 C 7,1 C 1,5 C 86 % 89 % 1017,0 hPa 0,0 l/m 5,8 km/h (2 Bft) SW 225 0 min 3,4 C 6,2 C 4,5 km/h (1 Bft)
21.03.2021 12:45 5,7 C 4,1 C 6,0 C 7,2 C 7,2 C 1,5 C 84 % 89 % 1017,0 hPa 0,0 l/m 6,4 km/h (2 Bft) SW 225 0 min 3,2 C 6,1 C 15,9 km/h (3 Bft)
21.03.2021 12:50 5,9 C 4,1 C 6,4 C 8,0 C 8,0 C 2,1 C 83 % 88 % 1017,0 hPa 0,0 l/m 6,0 km/h (2 Bft) W 270 0 min 3,2 C 7,2 C 8,5 km/h (2 Bft)
21.03.2021 12:55 6,0 C 4,1 C 6,4 C 7,6 C 7,6 C 1,6 C 82 % 87 % 1017,0 hPa 0,0 l/m 7,4 km/h (2 Bft) W-NW 292 0 min 3,2 C 6,3 C 12,4 km/h (3 Bft)
21.03.2021 13:00 6,0 C 4,1 C 6,3 C 8,1 C 8,1 C 2,1 C 80 % 87 % 1017,0 hPa 0,0 l/m 5,8 km/h (2 Bft) NW 315 0 min 2,8 C 7,3 C 7,6 km/h (2 Bft)
21.03.2021 13:05 5,9 C 4,1 C 6,2 C 8,1 C 8,1 C 2,2 C 78 % 87 % 1017,0 hPa 0,0 l/m 5,3 km/h (1 Bft) O-SO 112 0 min 2,4 C 7,5 C 6,6 km/h (2 Bft)
21.03.2021 13:10 5,9 C 3,9 C 6,2 C 8,0 C 8,0 C 2,1 C 78 % 86 % 1017,0 hPa 0,0 l/m 4,8 km/h (1 Bft) O-NO 67 0 min 2,4 C 7,6 C 0,0 km/h (0 Bft)
21.03.2021 13:15 5,8 C 3,9 C 5,9 C 7,8 C 7,8 C 2,0 C 77 % 86 % 1017,0 hPa 0,0 l/m 4,5 km/h (1 Bft) S-SW 202 0 min 2,1 C 7,8 C 5,5 km/h (1 Bft)
21.03.2021 13:20 5,6 C 3,9 C 5,7 C 7,2 C 7,2 C 1,6 C 77 % 87 % 1017,0 hPa 0,0 l/m 4,0 km/h (1 Bft) SW 225 0 min 1,9 C 7,2 C 6,9 km/h (2 Bft)
21.03.2021 13:25 5,6 C 3,9 C 5,7 C 6,7 C 6,7 C 1,1 C 77 % 87 % 1017,0 hPa 0,0 l/m 5,0 km/h (1 Bft) S 180 0 min 1,9 C 6,0 C 12,2 km/h (2 Bft)
21.03.2021 13:30 5,7 C 4,1 C 5,8 C 6,8 C 6,8 C 1,1 C 77 % 87 % 1017,0 hPa 0,0 l/m 4,8 km/h (1 Bft) O-NO 67 0 min 2,0 C 6,2 C 10,0 km/h (2 Bft)
21.03.2021 13:35 5,7 C 4,1 C 5,8 C 6,9 C 6,9 C 1,2 C 77 % 87 % 1017,0 hPa 0,0 l/m 4,5 km/h (1 Bft) S-SO 157 0 min 2,0 C 6,9 C 6,4 km/h (2 Bft)
21.03.2021 13:40 5,5 C 4,1 C 5,6 C 6,4 C 6,4 C 0,9 C 77 % 87 % 1017,0 hPa 0,0 l/m 5,1 km/h (1 Bft) W-SW 247 0 min 1,8 C 5,6 C 2,7 km/h (1 Bft)
21.03.2021 13:45 5,5 C 4,1 C 5,5 C 6,7 C 6,7 C 1,2 C 77 % 88 % 1017,0 hPa 0,0 l/m 4,0 km/h (1 Bft) W-NW 292 0 min 1,8 C 6,7 C 2,6 km/h (1 Bft)
21.03.2021 13:50 5,5 C 4,1 C 5,5 C 7,0 C 7,0 C 1,5 C 78 % 88 % 1017,0 hPa 0,0 l/m 2,3 km/h (1 Bft) S-SW 202 0 min 2,0 C 7,0 C 3,4 km/h (1 Bft)
21.03.2021 13:55 5,5 C 4,1 C 5,3 C 6,8 C 6,8 C 1,3 C 78 % 87 % 1017,0 hPa 0,0 l/m 3,2 km/h (1 Bft) W-SW 247 0 min 2,0 C 6,8 C 5,6 km/h (1 Bft)
21.03.2021 14:00 5,2 C 4,1 C 5,2 C 6,1 C 6,1 C 0,9 C 77 % 88 % 1017,0 hPa 0,0 l/m 4,0 km/h (1 Bft) N 360 0 min 1,5 C 6,1 C 2,7 km/h (1 Bft)
21.03.2021 14:05 5,2 C 4,1 C 5,3 C 6,1 C 6,1 C 0,9 C 78 % 88 % 1017,0 hPa 0,0 l/m 3,9 km/h (1 Bft) O-SO 112 0 min 1,7 C 6,1 C 9,0 km/h (2 Bft)
21.03.2021 14:10 5,2 C 4,1 C 5,3 C 6,3 C 6,3 C 1,1 C 78 % 89 % 1016,9 hPa 0,0 l/m 3,4 km/h (1 Bft) W-SW 247 0 min 1,7 C 6,3 C 5,0 km/h (1 Bft)
21.03.2021 14:15 5,3 C 4,1 C 5,2 C 6,2 C 6,2 C 0,9 C 78 % 89 % 1016,9 hPa 0,0 l/m 3,7 km/h (1 Bft) S 180 0 min 1,8 C 6,2 C 6,9 km/h (2 Bft)
21.03.2021 14:20 5,2 C 4,1 C 5,2 C 6,2 C 6,2 C 1,0 C 78 % 89 % 1016,9 hPa 0,0 l/m 3,7 km/h (1 Bft) NO 45 0 min 1,7 C 6,2 C 2,1 km/h (1 Bft)
21.03.2021 14:25 5,2 C 4,2 C 5,1 C 6,1 C 6,1 C 0,9 C 78 % 89 % 1016,9 hPa 0,0 l/m 4,0 km/h (1 Bft) W 270 0 min 1,7 C 6,1 C 4,7 km/h (1 Bft)
21.03.2021 14:30 5,3 C 4,2 C 5,1 C 6,2 C 6,2 C 0,9 C 79 % 89 % 1017,1 hPa 0,0 l/m 3,4 km/h (1 Bft) N-NO 22 0 min 2,0 C 6,2 C 4,5 km/h (1 Bft)
21.03.2021 14:35 5,3 C 4,2 C 5,1 C 6,2 C 6,2 C 0,9 C 78 % 89 % 1017,1 hPa 0,0 l/m 3,1 km/h (1 Bft) SO 135 0 min 1,8 C 6,2 C 0,0 km/h (0 Bft)
21.03.2021 14:40 5,2 C 4,2 C 5,0 C 5,9 C 5,9 C 0,7 C 78 % 89 % 1017,1 hPa 0,0 l/m 3,7 km/h (1 Bft) W-SW 247 0 min 1,7 C 5,9 C 10,3 km/h (2 Bft)
21.03.2021 14:45 5,2 C 4,2 C 4,9 C 5,7 C 5,7 C 0,5 C 79 % 89 % 1017,1 hPa 0,0 l/m 3,9 km/h (1 Bft) SW 225 0 min 1,9 C 5,7 C 6,0 km/h (2 Bft)
21.03.2021 14:50 5,3 C 4,2 C 5,0 C 6,1 C 6,1 C 0,8 C 79 % 90 % 1017,0 hPa 0,0 l/m 2,4 km/h (1 Bft) W-SW 247 0 min 2,0 C 6,1 C 4,7 km/h (1 Bft)
21.03.2021 14:55 5,3 C 4,2 C 5,1 C 6,1 C 6,1 C 0,8 C 79 % 90 % 1017,0 hPa 0,0 l/m 1,4 km/h (1 Bft) S-SO 157 0 min 2,0 C 6,1 C 0,0 km/h (0 Bft)
21.03.2021 15:00 5,3 C 4,2 C 5,0 C 6,1 C 6,1 C 0,8 C 79 % 90 % 1017,0 hPa 0,0 l/m 1,9 km/h (1 Bft) W 270 0 min 2,0 C 6,1 C 3,5 km/h (1 Bft)
21.03.2021 15:05 5,3 C 4,2 C 4,9 C 6,1 C 6,1 C 0,8 C 79 % 90 % 1017,0 hPa 0,0 l/m 2,6 km/h (1 Bft) W-SW 247 0 min 2,0 C 6,1 C 4,5 km/h (1 Bft)
21.03.2021 15:10 5,4 C 4,2 C 5,0 C 6,1 C 6,1 C 0,7 C 79 % 90 % 1017,0 hPa 0,0 l/m 2,7 km/h (1 Bft) W 270 0 min 2,1 C 6,1 C 6,1 km/h (2 Bft)
21.03.2021 15:15 5,5 C 4,2 C 5,0 C 6,1 C 6,1 C 0,6 C 79 % 90 % 1017,0 hPa 0,0 l/m 2,7 km/h (1 Bft) SW 225 0 min 2,2 C 6,1 C 5,0 km/h (1 Bft)
21.03.2021 15:20 5,4 C 4,2 C 5,1 C 6,0 C 6,0 C 0,6 C 79 % 89 % 1017,0 hPa 0,0 l/m 3,7 km/h (1 Bft) W-SW 247 0 min 2,1 C 6,0 C 9,8 km/h (2 Bft)
21.03.2021 15:25 5,5 C 4,3 C 5,1 C 6,1 C 6,1 C 0,6 C 79 % 90 % 1017,0 hPa 0,0 l/m 3,9 km/h (1 Bft) W-SW 247 0 min 2,2 C 6,1 C 3,7 km/h (1 Bft)
21.03.2021 15:30 5,6 C 4,3 C 5,2 C 6,4 C 6,4 C 0,8 C 79 % 90 % 1017,0 hPa 0,0 l/m 3,1 km/h (1 Bft) N 360 0 min 2,3 C 6,4 C 2,7 km/h (1 Bft)
21.03.2021 15:35 5,6 C 4,3 C 5,3 C 6,3 C 6,3 C 0,7 C 79 % 89 % 1017,0 hPa 0,0 l/m 3,5 km/h (1 Bft) W 270 0 min 2,3 C 6,3 C 4,3 km/h (1 Bft)
21.03.2021 15:40 5,6 C 4,3 C 5,3 C 6,4 C 6,4 C 0,8 C 78 % 89 % 1017,0 hPa 0,0 l/m 3,9 km/h (1 Bft) N-NO 22 0 min 2,1 C 6,4 C 5,6 km/h (1 Bft)
21.03.2021 15:45 5,7 C 4,3 C 5,4 C 6,6 C 6,6 C 0,9 C 78 % 89 % 1017,0 hPa 0,0 l/m 3,7 km/h (1 Bft) W 270 0 min 2,2 C 6,6 C 0,0 km/h (0 Bft)
21.03.2021 15:50 5,8 C 4,3 C 5,5 C 6,8 C 6,8 C 1,0 C 78 % 89 % 1017,2 hPa 0,0 l/m 3,4 km/h (1 Bft) S 180 0 min 2,3 C 6,8 C 15,4 km/h (3 Bft)
21.03.2021 15:55 5,9 C 4,3 C 5,6 C 6,9 C 6,9 C 1,0 C 78 % 89 % 1017,2 hPa 0,0 l/m 3,1 km/h (1 Bft) S 180 0 min 2,4 C 6,9 C 4,5 km/h (1 Bft)
21.03.2021 16:00 5,9 C 4,3 C 5,7 C 6,9 C 6,9 C 1,0 C 78 % 89 % 1017,2 hPa 0,0 l/m 3,5 km/h (1 Bft) W-SW 247 0 min 2,4 C 6,9 C 1,8 km/h (1 Bft)
21.03.2021 16:05 6,0 C 4,3 C 5,8 C 7,1 C 7,1 C 1,1 C 78 % 89 % 1017,2 hPa 0,0 l/m 2,6 km/h (1 Bft) N-NO 22 0 min 2,5 C 7,1 C 3,2 km/h (1 Bft)
21.03.2021 16:10 6,0 C 4,3 C 5,9 C 7,3 C 7,3 C 1,3 C 78 % 89 % 1017,2 hPa 0,0 l/m 2,4 km/h (1 Bft) W 270 0 min 2,5 C 7,3 C 6,1 km/h (2 Bft)
21.03.2021 16:15 6,0 C 4,3 C 5,8 C 7,1 C 7,1 C 1,1 C 78 % 89 % 1017,2 hPa 0,0 l/m 3,9 km/h (1 Bft) NO 45 0 min 2,5 C 7,1 C 4,0 km/h (1 Bft)
21.03.2021 16:20 6,1 C 4,3 C 5,8 C 7,2 C 7,2 C 1,1 C 78 % 89 % 1017,2 hPa 0,0 l/m 3,2 km/h (1 Bft) W-SW 247 0 min 2,6 C 7,2 C 10,6 km/h (2 Bft)
21.03.2021 16:25 6,1 C 4,3 C 5,8 C 7,1 C 7,1 C 1,0 C 78 % 89 % 1017,2 hPa 0,0 l/m 2,4 km/h (1 Bft) SW 225 0 min 2,6 C 7,1 C 7,2 km/h (2 Bft)
21.03.2021 16:30 6,1 C 4,4 C 5,9 C 7,2 C 7,2 C 1,1 C 77 % 89 % 1017,1 hPa 0,0 l/m 3,1 km/h (1 Bft) W 270 0 min 2,4 C 7,2 C 6,9 km/h (2 Bft)
21.03.2021 16:35 6,2 C 4,4 C 5,9 C 7,3 C 7,3 C 1,1 C 78 % 89 % 1017,1 hPa 0,0 l/m 2,4 km/h (1 Bft) W-NW 292 0 min 2,7 C 7,3 C 1,8 km/h (1 Bft)
21.03.2021 16:40 6,3 C 4,4 C 5,8 C 7,1 C 7,1 C 0,8 C 77 % 89 % 1017,1 hPa 0,0 l/m 3,2 km/h (1 Bft) S 180 0 min 2,6 C 7,1 C 3,1 km/h (1 Bft)
21.03.2021 16:45 6,1 C 4,4 C 5,7 C 6,9 C 6,9 C 0,8 C 77 % 89 % 1017,1 hPa 0,0 l/m 3,5 km/h (1 Bft) SW 225 0 min 2,4 C 6,9 C 6,1 km/h (2 Bft)
21.03.2021 16:50 6,1 C 4,4 C 5,6 C 6,7 C 6,7 C 0,6 C 77 % 89 % 1017,1 hPa 0,0 l/m 3,5 km/h (1 Bft) N-NW 337 0 min 2,4 C 6,7 C 2,1 km/h (1 Bft)
21.03.2021 16:55 6,1 C 4,4 C 5,5 C 6,7 C 6,7 C 0,6 C 77 % 89 % 1017,1 hPa 0,0 l/m 3,4 km/h (1 Bft) W-SW 247 0 min 2,4 C 6,7 C 5,1 km/h (1 Bft)
21.03.2021 17:00 6,1 C 4,4 C 5,6 C 6,8 C 6,8 C 0,7 C 77 % 89 % 1017,1 hPa 0,0 l/m 2,1 km/h (1 Bft) NW 315 0 min 2,4 C 6,8 C 2,3 km/h (1 Bft)
21.03.2021 17:05 6,3 C 4,4 C 5,7 C 7,0 C 7,0 C 0,7 C 77 % 89 % 1017,1 hPa 0,0 l/m 1,9 km/h (1 Bft) N 360 0 min 2,6 C 7,0 C 2,7 km/h (1 Bft)
21.03.2021 17:10 6,2 C 4,4 C 5,7 C 7,0 C 7,0 C 0,8 C 77 % 89 % 1017,0 hPa 0,0 l/m 1,8 km/h (1 Bft) N 360 0 min 2,5 C 7,0 C 2,6 km/h (1 Bft)
21.03.2021 17:15 6,3 C 4,4 C 5,7 C 6,9 C 6,9 C 0,6 C 77 % 89 % 1017,0 hPa 0,0 l/m 2,3 km/h (1 Bft) SO 135 0 min 2,6 C 6,9 C 0,0 km/h (0 Bft)
21.03.2021 17:20 6,2 C 4,4 C 5,7 C 6,9 C 6,9 C 0,7 C 77 % 89 % 1017,0 hPa 0,0 l/m 2,3 km/h (1 Bft) S-SW 202 0 min 2,5 C 6,9 C 12,7 km/h (3 Bft)
21.03.2021 17:25 6,2 C 4,4 C 5,6 C 6,7 C 6,7 C 0,5 C 76 % 88 % 1017,0 hPa 0,0 l/m 3,5 km/h (1 Bft) N-NO 22 0 min 2,3 C 6,7 C 6,1 km/h (2 Bft)
21.03.2021 17:30 6,3 C 4,5 C 5,6 C 6,3 C 6,3 C 0,0 C 76 % 89 % 1017,1 hPa 0,0 l/m 4,3 km/h (1 Bft) SW 225 0 min 2,4 C 6,3 C 5,1 km/h (1 Bft)
21.03.2021 17:35 6,3 C 4,5 C 5,6 C 6,8 C 6,8 C 0,5 C 76 % 89 % 1017,1 hPa 0,0 l/m 2,7 km/h (1 Bft) W-NW 292 0 min 2,4 C 6,8 C 4,3 km/h (1 Bft)
21.03.2021 17:40 6,3 C 4,5 C 5,4 C 6,6 C 6,6 C 0,3 C 76 % 88 % 1017,1 hPa 0,0 l/m 3,4 km/h (1 Bft) S 180 0 min 2,4 C 6,6 C 1,6 km/h (1 Bft)
21.03.2021 17:45 6,3 C 4,5 C 5,3 C 6,3 C 6,3 C 0,0 C 76 % 88 % 1017,1 hPa 0,0 l/m 3,2 km/h (1 Bft) W-SW 247 0 min 2,4 C 6,3 C 6,4 km/h (2 Bft)
21.03.2021 17:50 6,1 C 4,5 C 5,4 C 6,2 C 6,2 C 0,1 C 76 % 88 % 1017,1 hPa 0,0 l/m 2,4 km/h (1 Bft) SW 225 0 min 2,2 C 6,2 C 6,0 km/h (2 Bft)
21.03.2021 17:55 6,1 C 4,5 C 5,4 C 6,3 C 6,3 C 0,2 C 76 % 88 % 1017,1 hPa 0,0 l/m 2,9 km/h (1 Bft) S-SO 157 0 min 2,2 C 6,3 C 2,6 km/h (1 Bft)
21.03.2021 18:00 6,1 C 4,5 C 5,3 C 6,2 C 6,2 C 0,1 C 76 % 87 % 1017,1 hPa 0,0 l/m 3,4 km/h (1 Bft) NW 315 0 min 2,2 C 6,2 C 2,4 km/h (1 Bft)
21.03.2021 18:05 6,1 C 4,5 C 5,3 C 6,2 C 6,2 C 0,1 C 76 % 87 % 1017,1 hPa 0,0 l/m 3,1 km/h (1 Bft) SO 135 0 min 2,2 C 6,2 C 2,9 km/h (1 Bft)
21.03.2021 18:10 6,1 C 4,5 C 5,3 C 6,1 C 6,1 C 0,0 C 76 % 87 % 1017,1 hPa 0,0 l/m 2,7 km/h (1 Bft) S 180 0 min 2,2 C 6,1 C 6,6 km/h (2 Bft)
21.03.2021 18:15 6,0 C 4,5 C 5,2 C 6,1 C 6,1 C 0,1 C 76 % 87 % 1017,1 hPa 0,0 l/m 2,6 km/h (1 Bft) N-NW 337 0 min 2,1 C 6,1 C 0,0 km/h (0 Bft)
21.03.2021 18:20 6,0 C 4,5 C 5,1 C 6,0 C 5,9 C 0,0 C 76 % 87 % 1017,1 hPa 0,0 l/m 2,4 km/h (1 Bft) SW 225 0 min 2,1 C 5,9 C 3,7 km/h (1 Bft)
21.03.2021 18:25 5,9 C 4,5 C 5,0 C 5,9 C 5,9 C 0,0 C 76 % 87 % 1017,1 hPa 0,0 l/m 2,4 km/h (1 Bft) S-SO 157 0 min 2,0 C 5,9 C 6,6 km/h (2 Bft)
21.03.2021 18:30 5,9 C 4,5 C 5,0 C 5,8 C 5,7 C 0,0 C 76 % 87 % 1017,1 hPa 0,0 l/m 3,2 km/h (1 Bft) W-NW 292 0 min 2,0 C 5,7 C 7,1 km/h (2 Bft)
21.03.2021 18:35 5,9 C 4,5 C 4,9 C 5,7 C 5,3 C 0,0 C 77 % 87 % 1017,1 hPa 0,0 l/m 4,0 km/h (1 Bft) W-SW 247 0 min 2,2 C 5,3 C 5,1 km/h (1 Bft)
21.03.2021 18:40 5,8 C 4,5 C 4,8 C 5,5 C 4,8 C 0,0 C 77 % 87 % 1017,1 hPa 0,0 l/m 4,5 km/h (1 Bft) W-SW 247 0 min 2,1 C 4,8 C 6,6 km/h (2 Bft)
21.03.2021 18:45 5,7 C 4,5 C 4,7 C 5,5 C 5,0 C 0,0 C 77 % 86 % 1017,1 hPa 0,0 l/m 3,9 km/h (1 Bft) S 180 0 min 2,0 C 5,0 C 3,4 km/h (1 Bft)
21.03.2021 18:50 5,6 C 4,7 C 4,6 C 5,4 C 5,0 C 0,0 C 77 % 87 % 1017,5 hPa 0,0 l/m 3,5 km/h (1 Bft) SW 225 0 min 1,9 C 5,0 C 4,0 km/h (1 Bft)
21.03.2021 18:55 5,5 C 4,7 C 4,5 C 5,3 C 4,8 C 0,0 C 77 % 87 % 1017,5 hPa 0,0 l/m 3,4 km/h (1 Bft) W-SW 247 0 min 1,8 C 4,8 C 5,0 km/h (1 Bft)
21.03.2021 19:00 5,4 C 4,7 C 4,5 C 5,3 C 5,1 C 0,0 C 77 % 87 % 1017,5 hPa 0,0 l/m 2,9 km/h (1 Bft) W-SW 247 0 min 1,7 C 5,1 C 10,3 km/h (2 Bft)
21.03.2021 19:05 5,5 C 4,7 C 4,5 C 5,4 C 5,1 C 0,0 C 78 % 87 % 1017,5 hPa 0,0 l/m 2,9 km/h (1 Bft) SO 135 0 min 2,0 C 5,1 C 6,1 km/h (2 Bft)
21.03.2021 19:10 5,5 C 4,7 C 4,5 C 5,4 C 5,2 C 0,0 C 78 % 86 % 1017,6 hPa 0,0 l/m 3,1 km/h (1 Bft) O-NO 67 0 min 2,0 C 5,2 C 1,6 km/h (1 Bft)
21.03.2021 19:15 5,4 C 4,7 C 4,4 C 5,3 C 5,2 C 0,0 C 78 % 86 % 1017,6 hPa 0,0 l/m 2,7 km/h (1 Bft) W-SW 247 0 min 1,9 C 5,2 C 6,4 km/h (2 Bft)
21.03.2021 19:20 5,3 C 4,7 C 4,4 C 5,2 C 5,1 C 0,0 C 77 % 86 % 1017,6 hPa 0,0 l/m 2,4 km/h (1 Bft) W-SW 247 0 min 1,6 C 5,1 C 4,2 km/h (1 Bft)
21.03.2021 19:25 5,3 C 4,7 C 4,3 C 5,2 C 4,9 C 0,0 C 77 % 86 % 1017,6 hPa 0,0 l/m 2,7 km/h (1 Bft) S 180 0 min 1,6 C 4,9 C 6,8 km/h (2 Bft)
21.03.2021 19:30 5,2 C 4,7 C 4,4 C 5,1 C 4,9 C 0,0 C 78 % 86 % 1017,9 hPa 0,0 l/m 3,2 km/h (1 Bft) S-SW 202 0 min 1,7 C 4,9 C 4,5 km/h (1 Bft)
21.03.2021 19:35 5,3 C 4,7 C 4,3 C 5,2 C 5,0 C 0,0 C 78 % 87 % 1017,9 hPa 0,0 l/m 2,6 km/h (1 Bft) NW 315 0 min 1,8 C 5,0 C 1,8 km/h (1 Bft)
21.03.2021 19:40 5,2 C 4,7 C 4,3 C 5,2 C 5,1 C 0,0 C 78 % 86 % 1017,9 hPa 0,0 l/m 2,1 km/h (1 Bft) SW 225 0 min 1,7 C 5,1 C 7,1 km/h (2 Bft)
21.03.2021 19:45 5,2 C 4,7 C 4,3 C 5,1 C 5,0 C 0,0 C 78 % 87 % 1017,9 hPa 0,0 l/m 1,1 km/h (1 Bft) W-SW 247 0 min 1,7 C 5,0 C 0,0 km/h (0 Bft)
21.03.2021 19:50 5,1 C 4,7 C 4,3 C 5,0 C 4,9 C 0,0 C 78 % 86 % 1017,7 hPa 0,0 l/m 0,5 km/h (0 Bft) S 180 0 min 1,6 C 4,9 C 0,0 km/h (0 Bft)
21.03.2021 19:55 5,1 C 4,7 C 4,2 C 5,0 C 4,8 C 0,0 C 78 % 86 % 1017,7 hPa 0,0 l/m 0,6 km/h (0 Bft) W-SW 247 0 min 1,6 C 4,8 C 0,0 km/h (0 Bft)
21.03.2021 20:00 5,0 C 4,7 C 4,2 C 4,9 C 4,6 C 0,0 C 78 % 86 % 1017,7 hPa 0,0 l/m 1,9 km/h (1 Bft) SW 225 0 min 1,5 C 4,6 C 3,9 km/h (1 Bft)
21.03.2021 20:05 5,1 C 4,7 C 4,2 C 4,9 C 4,6 C 0,0 C 78 % 86 % 1017,7 hPa 0,0 l/m 2,4 km/h (1 Bft) SW 225 0 min 1,6 C 4,6 C 4,5 km/h (1 Bft)
21.03.2021 20:10 5,1 C 4,7 C 4,2 C 5,0 C 4,7 C 0,0 C 79 % 86 % 1018,5 hPa 0,0 l/m 1,4 km/h (1 Bft) S 180 0 min 1,8 C 4,7 C 0,0 km/h (0 Bft)
21.03.2021 20:15 5,0 C 4,7 C 4,1 C 4,9 C 4,7 C 0,0 C 79 % 86 % 1018,5 hPa 0,0 l/m 2,1 km/h (1 Bft) S-SW 202 0 min 1,7 C 4,7 C 5,3 km/h (1 Bft)
21.03.2021 20:20 5,0 C 4,7 C 4,2 C 4,9 C 4,7 C 0,0 C 78 % 86 % 1018,5 hPa 0,0 l/m 1,9 km/h (1 Bft) SW 225 0 min 1,5 C 4,7 C 5,1 km/h (1 Bft)
21.03.2021 20:25 5,1 C 4,7 C 4,1 C 5,0 C 4,7 C 0,0 C 79 % 85 % 1018,5 hPa 0,0 l/m 2,3 km/h (1 Bft) S-SW 202 0 min 1,8 C 4,7 C 7,4 km/h (2 Bft)
21.03.2021 20:30 5,1 C 4,7 C 4,1 C 5,0 C 4,8 C 0,0 C 78 % 85 % 1018,8 hPa 0,0 l/m 2,7 km/h (1 Bft) S-SW 202 0 min 1,6 C 4,8 C 2,7 km/h (1 Bft)
21.03.2021 20:35 5,1 C 4,7 C 4,1 C 5,0 C 4,8 C 0,0 C 78 % 85 % 1018,8 hPa 0,0 l/m 2,4 km/h (1 Bft) SW 225 0 min 1,6 C 4,8 C 3,2 km/h (1 Bft)
21.03.2021 20:40 5,0 C 4,8 C 4,1 C 4,9 C 4,6 C 0,0 C 78 % 85 % 1018,8 hPa 0,0 l/m 1,3 km/h (1 Bft) W-SW 247 0 min 1,5 C 4,6 C 0,0 km/h (0 Bft)
21.03.2021 20:45 4,9 C 4,8 C 3,9 C 4,8 C 4,5 C 0,0 C 78 % 85 % 1018,8 hPa 0,0 l/m 1,9 km/h (1 Bft) S 180 0 min 1,4 C 4,5 C 6,9 km/h (2 Bft)
21.03.2021 20:50 4,9 C 4,8 C 3,9 C 4,7 C 4,4 C 0,0 C 78 % 85 % 1019,1 hPa 0,0 l/m 1,6 km/h (1 Bft) NW 315 0 min 1,4 C 4,4 C 0,0 km/h (0 Bft)
21.03.2021 20:55 4,8 C 4,8 C 3,8 C 4,6 C 4,2 C 0,0 C 78 % 85 % 1019,1 hPa 0,0 l/m 1,0 km/h (0 Bft) S 180 0 min 1,3 C 4,2 C 2,3 km/h (1 Bft)
21.03.2021 21:00 4,8 C 4,8 C 3,6 C 4,5 C 4,0 C 0,0 C 79 % 85 % 1019,1 hPa 0,0 l/m 0,8 km/h (0 Bft) SW 225 0 min 1,5 C 4,0 C 0,0 km/h (0 Bft)
21.03.2021 21:05 4,7 C 4,8 C 3,6 C 4,4 C 3,9 C 0,0 C 79 % 85 % 1019,1 hPa 0,0 l/m 1,4 km/h (1 Bft) SW 225 0 min 1,4 C 3,9 C 2,9 km/h (1 Bft)
21.03.2021 21:10 4,7 C 4,8 C 3,5 C 4,4 C 3,7 C 0,0 C 79 % 85 % 1019,5 hPa 0,0 l/m 1,6 km/h (1 Bft) SW 225 0 min 1,4 C 3,7 C 0,0 km/h (0 Bft)
21.03.2021 21:15 4,5 C 4,8 C 3,5 C 4,2 C 3,6 C 0,0 C 79 % 86 % 1019,5 hPa 0,0 l/m 1,8 km/h (1 Bft) S-SO 157 0 min 1,2 C 3,6 C 5,3 km/h (1 Bft)
21.03.2021 21:20 4,5 C 4,8 C 3,5 C 4,2 C 3,7 C 0,0 C 79 % 86 % 1019,5 hPa 0,0 l/m 1,6 km/h (1 Bft) S 180 0 min 1,2 C 3,7 C 4,8 km/h (1 Bft)
21.03.2021 21:25 4,4 C 4,8 C 3,5 C 4,2 C 3,9 C 0,0 C 79 % 86 % 1019,5 hPa 0,0 l/m 1,4 km/h (1 Bft) S 180 0 min 1,1 C 3,9 C 0,0 km/h (0 Bft)
21.03.2021 21:30 4,4 C 4,8 C 3,5 C 4,2 C 3,9 C 0,0 C 79 % 85 % 1019,2 hPa 0,0 l/m 1,3 km/h (1 Bft) N-NW 337 0 min 1,1 C 3,9 C 11,6 km/h (2 Bft)
21.03.2021 21:35 4,4 C 4,8 C 3,5 C 4,2 C 3,8 C 0,0 C 79 % 86 % 1019,2 hPa 0,0 l/m 1,4 km/h (1 Bft) W-SW 247 0 min 1,1 C 3,8 C 3,5 km/h (1 Bft)
21.03.2021 21:40 4,3 C 4,8 C 3,3 C 4,1 C 3,6 C 0,0 C 79 % 86 % 1019,2 hPa 0,0 l/m 1,6 km/h (1 Bft) N-NW 337 0 min 1,0 C 3,6 C 0,0 km/h (0 Bft)
21.03.2021 21:45 4,3 C 4,8 C 3,2 C 4,0 C 3,4 C 0,0 C 79 % 86 % 1019,2 hPa 0,0 l/m 1,0 km/h (0 Bft) S 180 0 min 1,0 C 3,4 C 0,0 km/h (0 Bft)
21.03.2021 21:50 4,1 C 4,8 C 3,0 C 3,8 C 3,1 C 0,0 C 79 % 86 % 1019,4 hPa 0,0 l/m 0,5 km/h (0 Bft) N-NW 337 0 min 0,8 C 3,1 C 0,0 km/h (0 Bft)
21.03.2021 21:55 4,1 C 4,8 C 3,0 C 3,7 C 3,0 C 0,0 C 80 % 86 % 1019,4 hPa 0,0 l/m 0,5 km/h (0 Bft) W-SW 247 0 min 1,0 C 3,0 C 3,1 km/h (1 Bft)
21.03.2021 22:00 4,0 C 4,8 C 2,9 C 3,6 C 2,8 C 0,0 C 80 % 86 % 1019,4 hPa 0,0 l/m 1,4 km/h (1 Bft) S-SW 202 0 min 0,9 C 2,8 C 2,6 km/h (1 Bft)
21.03.2021 22:05 3,9 C 4,8 C 2,8 C 3,5 C 2,8 C 0,0 C 80 % 86 % 1019,4 hPa 0,0 l/m 1,4 km/h (1 Bft) S 180 0 min 0,8 C 2,8 C 0,0 km/h (0 Bft)
21.03.2021 22:10 3,8 C 4,8 C 2,7 C 3,4 C 2,6 C 0,0 C 80 % 87 % 1019,4 hPa 0,0 l/m 0,6 km/h (0 Bft) SW 225 0 min 0,7 C 2,6 C 2,9 km/h (1 Bft)
21.03.2021 22:15 3,7 C 4,8 C 2,7 C 3,3 C 2,6 C 0,0 C 80 % 87 % 1019,4 hPa 0,0 l/m 1,1 km/h (1 Bft) W-SW 247 0 min 0,6 C 2,6 C 1,9 km/h (1 Bft)
21.03.2021 22:20 3,6 C 4,8 C 2,7 C 3,3 C 2,6 C 0,0 C 80 % 87 % 1019,4 hPa 0,0 l/m 1,1 km/h (1 Bft) SW 225 0 min 0,5 C 2,6 C 6,1 km/h (2 Bft)
21.03.2021 22:25 3,7 C 4,8 C 2,6 C 3,4 C 2,7 C 0,0 C 80 % 87 % 1019,4 hPa 0,0 l/m 0,6 km/h (0 Bft) SW 225 0 min 0,6 C 2,7 C 0,0 km/h (0 Bft)
21.03.2021 22:30 3,6 C 4,8 C 2,5 C 3,2 C 2,5 C 0,0 C 80 % 87 % 1019,5 hPa 0,0 l/m 0,6 km/h (0 Bft) W-SW 247 0 min 0,5 C 2,5 C 3,2 km/h (1 Bft)
21.03.2021 22:35 3,5 C 4,8 C 2,5 C 3,2 C 2,5 C 0,0 C 80 % 87 % 1019,5 hPa 0,0 l/m 0,5 km/h (0 Bft) W-SW 247 0 min 0,4 C 2,5 C 0,0 km/h (0 Bft)
21.03.2021 22:40 3,4 C 4,8 C 2,5 C 3,1 C 2,4 C 0,0 C 81 % 87 % 1019,5 hPa 0,0 l/m 0,5 km/h (0 Bft) W-NW 292 0 min 0,5 C 2,4 C 0,0 km/h (0 Bft)
21.03.2021 22:45 3,5 C 4,8 C 2,5 C 3,1 C 2,4 C 0,0 C 81 % 87 % 1019,5 hPa 0,0 l/m 0,3 km/h (0 Bft) S 180 0 min 0,6 C 2,4 C 0,0 km/h (0 Bft)
21.03.2021 22:50 3,3 C 4,8 C 2,4 C 3,0 C 2,4 C 0,0 C 81 % 87 % 1020,1 hPa 0,0 l/m 0,5 km/h (0 Bft) W 270 0 min 0,4 C 2,4 C 0,0 km/h (0 Bft)
21.03.2021 22:55 3,3 C 4,8 C 2,3 C 3,0 C 2,3 C 0,0 C 81 % 87 % 1020,1 hPa 0,0 l/m 0,5 km/h (0 Bft) W-SW 247 0 min 0,4 C 2,3 C 0,0 km/h (0 Bft)
21.03.2021 23:00 3,2 C 4,8 C 2,3 C 2,9 C 2,2 C 0,0 C 81 % 87 % 1020,1 hPa 0,0 l/m 0,6 km/h (0 Bft) SW 225 0 min 0,3 C 2,2 C 0,0 km/h (0 Bft)
21.03.2021 23:05 3,2 C 4,8 C 2,2 C 2,8 C 2,1 C 0,0 C 81 % 87 % 1020,1 hPa 0,0 l/m 0,8 km/h (0 Bft) W 270 0 min 0,3 C 2,1 C 0,0 km/h (0 Bft)
21.03.2021 23:10 3,1 C 4,8 C 2,2 C 2,7 C 1,9 C 0,0 C 81 % 87 % 1020,0 hPa 0,0 l/m 0,8 km/h (0 Bft) S 180 0 min 0,2 C 1,9 C 1,6 km/h (1 Bft)
21.03.2021 23:15 3,1 C 4,8 C 2,1 C 2,7 C 1,9 C 0,0 C 81 % 87 % 1020,0 hPa 0,0 l/m 0,6 km/h (0 Bft) W 270 0 min 0,2 C 1,9 C 0,0 km/h (0 Bft)
21.03.2021 23:20 3,1 C 4,8 C 2,1 C 2,7 C 1,9 C 0,0 C 81 % 87 % 1020,0 hPa 0,0 l/m 1,0 km/h (0 Bft) SW 225 0 min 0,2 C 1,9 C 4,5 km/h (1 Bft)
21.03.2021 23:25 3,0 C 4,8 C 2,1 C 2,6 C 1,9 C 0,0 C 81 % 87 % 1020,0 hPa 0,0 l/m 0,5 km/h (0 Bft) NW 315 0 min 0,1 C 1,9 C 0,0 km/h (0 Bft)
21.03.2021 23:30 2,8 C 4,8 C 2,0 C 2,5 C 1,8 C 0,0 C 82 % 87 % 1020,0 hPa 0,0 l/m 0,2 km/h (0 Bft) S 180 0 min 0,0 C 1,8 C 0,0 km/h (0 Bft)
21.03.2021 23:35 2,8 C 4,8 C 2,0 C 2,4 C 1,7 C 0,0 C 82 % 87 % 1020,0 hPa 0,0 l/m 0,2 km/h (0 Bft) SW 225 0 min 0,0 C 1,7 C 0,0 km/h (0 Bft)
21.03.2021 23:40 2,8 C 4,9 C 1,8 C 2,4 C 1,5 C 0,0 C 82 % 88 % 1020,0 hPa 0,0 l/m 0,2 km/h (0 Bft) N-NW 337 0 min 0,0 C 1,5 C 0,0 km/h (0 Bft)
21.03.2021 23:45 2,7 C 4,9 C 1,7 C 2,2 C 1,3 C 0,0 C 81 % 88 % 1020,0 hPa 0,0 l/m 0,2 km/h (0 Bft) S-SW 202 0 min -0,2 C 1,3 C 0,0 km/h (0 Bft)
21.03.2021 23:50 2,6 C 4,9 C 1,5 C 2,1 C 1,1 C 0,0 C 82 % 88 % 1020,0 hPa 0,0 l/m 0,2 km/h (0 Bft) O-NO 67 0 min -0,2 C 1,1 C 0,0 km/h (0 Bft)
21.03.2021 23:55 2,5 C 4,9 C 1,4 C 2,0 C 0,9 C 0,0 C 82 % 88 % 1020,0 hPa 0,0 l/m 0,3 km/h (0 Bft) S 180 0 min -0,3 C 0,9 C 0,0 km/h (0 Bft)
_ Min-Zeit 00:05 00:00 00:00 02:10 01:55 00:00 01:20 01:15 11:10 - 23:30 - - - 00:05 01:55 00:00
Minimum _ 0,2 C 3,3 C -0,1 C 0,0 C -2,0 C 0,0 C 68 % 71 % 1016,6 hPa - 0,2 km/h (0 Bft) - - - -4,6 C -5,3 C 0,0 km/h (0 Bft)
_ Max-Zeit 16:40 23:40 12:50 13:00 13:00 13:05 08:50 09:55 00:00 08:40 10:25 - - 00:00 12:35 13:15 12:30
Maximum _ 6,3 C 4,9 C 6,4 C 8,1 C 8,1 C 2,2 C 88 % 93 % 1024,3 hPa 0,7 l/m 10,1 km/h
S-SW (2 Bft)
- - 0 min 3,7 C 7,8 C 26,9 km/h
S-SW (4 Bft)
Durchschnitt _ 3,2 C 4,1 C 2,9 C 3,2 C 2,7 C 0,2 C 79 % 85 % 1018,8 hPa #0,7 l/m 3,7 km/h (1 Bft) SW - #0 min. -0,2 C 2,1 C 5,6 km/h (1 Bft)
2021 www.wetterstation-wechselburg.de